DW6743 Saro (Goteborg) SE current weather conditions

sailwx.info

Wind from 148 at 5 knots gusting 10

Air temperature 18.3° C
Dewpoint 15.9° C

Last reported at 2019-Jun-20 03:03 UTC.
Time now 2019-Jun-20 03:52 UTC

Location: N 57°31' E 011°57'.
View on Google Maps.

See reports from other nearby stations

  
Tides and Currents Weather Stations Pressure Air Temp Water Temp Dewpoint Dewpoint Depression Visibility Wind Speed Wind Dir Waves Ship Positions
date/time (UTC)wind fromknots sea level pressurealtimeterstation pressurevisibilityair tempwater tempwave heightnotes
2019-Jun-20 03:08 155 5 gusting 8 18.3
2019-Jun-20 03:03 148 5 gusting 10 18.3
2019-Jun-20 02:48 158 6 gusting 10 18.3
2019-Jun-20 02:43 158 5 gusting 10 18.3
2019-Jun-20 02:38 171 4 gusting 6 18.3
2019-Jun-20 02:33 170 5 gusting 11 18.3
2019-Jun-20 02:18 155 7 gusting 10 18.3
2019-Jun-20 02:13 160 8 gusting 11 18.3
2019-Jun-20 02:08 139 6 gusting 12 18.3
2019-Jun-20 02:03 140 10 gusting 14 18.3
2019-Jun-20 01:48 153 8 gusting 13 18.3
2019-Jun-20 01:43 128 7 gusting 10 18.3
2019-Jun-20 01:38 086 1 gusting 6 18.3
2019-Jun-20 01:33 108 5 gusting 8 18.3
2019-Jun-20 01:18 115 2 gusting 6 18.9
2019-Jun-20 01:13 109 4 gusting 6 18.9
2019-Jun-20 01:08 124 3 gusting 6 18.9
2019-Jun-20 01:03 136 7 gusting 11 18.9
2019-Jun-20 00:48 146 4 gusting 10 18.9
2019-Jun-20 00:43 141 6 gusting 12 18.9
2019-Jun-20 00:38 147 6 gusting 10 18.9
2019-Jun-20 00:33 154 6 gusting 14 18.9
2019-Jun-20 00:18 162 6 gusting 15 19.4
2019-Jun-20 00:13 188 8 gusting 13 19.4
2019-Jun-20 00:08 183 9 gusting 17 19.4
2019-Jun-20 00:03 181 9 gusting 20 20.0
2019-Jun-19 23:48 163 11 gusting 19 20.6
2019-Jun-19 23:43 161 8 gusting 18 20.6
2019-Jun-19 23:38 170 10 gusting 19 20.6
2019-Jun-19 23:33 159 10 gusting 19 20.6
2019-Jun-19 23:18 157 13 gusting 18 20.6
2019-Jun-19 23:13 146 10 gusting 18 21.1
2019-Jun-19 23:08 154 15 gusting 26 21.1
2019-Jun-19 23:03 146 9 gusting 25 21.1
2019-Jun-19 22:48 156 13 gusting 22 21.1
2019-Jun-19 22:43 155 12 gusting 20 21.1
2019-Jun-19 22:38 158 13 gusting 22 21.1
2019-Jun-19 22:33 160 13 gusting 19 21.1
2019-Jun-19 22:18 151 13 gusting 19 21.1
2019-Jun-19 22:13 144 11 gusting 19 21.1
2019-Jun-19 22:08 151 15 gusting 18 21.7
2019-Jun-19 22:03 149 13 gusting 19 21.7
2019-Jun-19 21:48 141 15 gusting 19 21.7
2019-Jun-19 21:43 154 11 gusting 19 21.7
2019-Jun-19 21:38 142 13 gusting 19 21.7
2019-Jun-19 21:33 138 11 gusting 20 21.7
2019-Jun-19 21:18 147 13 gusting 17 21.7
2019-Jun-19 21:13 145 12 gusting 20 21.7
2019-Jun-19 21:08 140 13 gusting 18 21.7
2019-Jun-19 21:03 139 8 gusting 15 21.7
2019-Jun-19 20:48 139 11 gusting 13 21.7
2019-Jun-19 20:43 135 11 gusting 14 21.7
2019-Jun-19 20:38 145 10 gusting 15 22.2
2019-Jun-19 20:33 141 12 gusting 19 22.2
2019-Jun-19 20:18 143 11 gusting 14 22.2
2019-Jun-19 20:13 153 12 gusting 17 22.2
2019-Jun-19 20:08 148 12 gusting 18 22.2
2019-Jun-19 20:03 153 13 gusting 19 22.2
2019-Jun-19 19:48 142 10 gusting 15 22.2
2019-Jun-19 19:43 146 9 gusting 14 22.2
2019-Jun-19 19:38 145 10 gusting 13 22.2
2019-Jun-19 19:33 151 8 gusting 17 22.2
2019-Jun-19 19:18 146 11 gusting 19 22.2
2019-Jun-19 19:13 156 10 gusting 18 22.2
2019-Jun-19 19:08 153 10 gusting 17 22.8
2019-Jun-19 19:03 155 11 gusting 22 22.8
2019-Jun-19 18:48 164 10 gusting 18 23.3
2019-Jun-19 18:43 166 12 gusting 17 23.3
2019-Jun-19 18:38 154 12 gusting 19 23.3
2019-Jun-19 18:33 158 11 gusting 26 23.3
2019-Jun-19 18:18 156 13 gusting 18 23.3
2019-Jun-19 18:13 163 13 gusting 25 23.3
2019-Jun-19 18:08 173 14 gusting 22 23.3
2019-Jun-19 18:03 170 12 gusting 20 23.3
2019-Jun-19 17:48 172 14 gusting 19 23.3
2019-Jun-19 17:43 165 16 gusting 22 23.3
2019-Jun-19 17:38 167 10 gusting 15 23.9
2019-Jun-19 17:33 162 12 gusting 22 23.9
2019-Jun-19 17:18 165 9 gusting 19 23.9
2019-Jun-19 17:13 164 12 gusting 19 23.9
2019-Jun-19 17:08 158 11 gusting 17 23.9
2019-Jun-19 17:03 164 13 gusting 19 23.9
2019-Jun-19 16:48 166 13 gusting 18 23.9
2019-Jun-19 16:43 180 8 gusting 17 24.4
2019-Jun-19 16:38 165 12 gusting 19 23.9
2019-Jun-19 16:33 168 10 gusting 19 24.4
2019-Jun-19 16:18 158 14 gusting 19 24.4
2019-Jun-19 16:13 164 14 gusting 20 24.4
2019-Jun-19 16:08 167 18 gusting 28 25.0
2019-Jun-19 16:03 168 11 gusting 22 25.0
2019-Jun-19 15:48 158 13 gusting 19 25.0
2019-Jun-19 15:43 151 12 gusting 19 25.0
2019-Jun-19 15:38 163 11 gusting 15 25.0
2019-Jun-19 15:33 166 11 gusting 17 25.6
2019-Jun-19 15:18 162 11 gusting 19 25.0
2019-Jun-19 15:13 164 9 gusting 19 25.0
2019-Jun-19 15:08 182 6 gusting 10 25.0
2019-Jun-19 15:03 179 4 gusting 11 25.0
2019-Jun-19 14:48 190 6 gusting 10 24.4
2019-Jun-19 14:43 189 8 gusting 13 23.9
2019-Jun-19 14:38 182 7 gusting 13 23.3
2019-Jun-19 14:33 170 6 gusting 12 23.3
2019-Jun-19 14:18 238 4 gusting 7 22.8
2019-Jun-19 14:13 223 2 gusting 6 22.8
2019-Jun-19 14:08 237 2 gusting 5 22.2
2019-Jun-19 14:03 234 2 gusting 6 21.7
2019-Jun-19 13:48 246 6 gusting 8 21.7
2019-Jun-19 13:43 256 5 gusting 7 22.2
2019-Jun-19 13:38 227 2 gusting 5 22.2
2019-Jun-19 13:33 229 0 gusting 7 22.2
2019-Jun-19 13:18 218 0 gusting 6 21.7
2019-Jun-19 13:13 260 3 gusting 7 21.1
2019-Jun-19 13:08 237 4 gusting 6 21.1
2019-Jun-19 13:03 259 5 gusting 8 21.1
2019-Jun-19 12:48 260 4 gusting 6 21.7
2019-Jun-19 12:43 262 3 gusting 6 21.7
2019-Jun-19 12:38 252 2 gusting 6 21.7
2019-Jun-19 12:33 230 0 gusting 6 21.7
2019-Jun-19 12:18 264 2 gusting 6 20.6
2019-Jun-19 12:13 275 3 gusting 5 20.6
2019-Jun-19 12:08 277 3 gusting 5 20.6
2019-Jun-19 12:03 279 1 gusting 6 20.6
2019-Jun-19 11:48 262 4 gusting 7 21.1
2019-Jun-19 11:43 246 6 gusting 8 21.1
2019-Jun-19 11:38 258 5 gusting 7 21.1
2019-Jun-19 11:33 252 6 gusting 8 21.1
2019-Jun-19 11:18 260 3 gusting 7 21.7
2019-Jun-19 11:13 257 5 gusting 8 21.7
2019-Jun-19 11:08 270 2 gusting 6 21.1
2019-Jun-19 11:03 253 4 gusting 7 21.1
2019-Jun-19 10:48 256 5 gusting 7 21.7
2019-Jun-19 10:43 257 7 gusting 10 21.7
2019-Jun-19 10:38 244 6 gusting 10 21.7
2019-Jun-19 10:33 250 6 gusting 10 21.7
2019-Jun-19 10:18 242 6 gusting 8 21.7
2019-Jun-19 10:13 242 7 gusting 10 21.7
2019-Jun-19 10:08 239 8 gusting 10 21.7
2019-Jun-19 10:03 246 7 gusting 10 21.7
2019-Jun-19 09:48 239 8 gusting 10 21.1
2019-Jun-19 09:43 243 8 gusting 10 21.1
2019-Jun-19 09:38 240 7 gusting 8 20.6
2019-Jun-19 09:33 247 7 gusting 10 20.6
2019-Jun-19 09:18 260 5 gusting 8 21.1
2019-Jun-19 09:13 265 5 gusting 8 21.1
2019-Jun-19 09:08 238 5 gusting 7 20.6
2019-Jun-19 09:03 262 6 gusting 8 20.6
2019-Jun-19 08:48 189 4 gusting 6 21.1
2019-Jun-19 08:43 211 3 gusting 6 21.1
2019-Jun-19 08:38 216 4 gusting 6 20.6
2019-Jun-19 08:33 170 5 gusting 6 20.6
2019-Jun-19 08:18 186 2 gusting 5 20.6
2019-Jun-19 08:13 204 3 gusting 6 21.1
2019-Jun-19 08:08 185 0 gusting 2 20.6
2019-Jun-19 08:03 159 0 gusting 5 20.6
2019-Jun-19 07:48 162 3 gusting 5 20.6
2019-Jun-19 07:43 155 0 gusting 2 20.0
2019-Jun-19 07:38 184 0 gusting 2 20.0
2019-Jun-19 07:33 160 1 gusting 7 20.0
2019-Jun-19 07:18 149 1 gusting 5 19.4
2019-Jun-19 07:13 154 4 gusting 6 18.9
2019-Jun-19 07:08 134 1 gusting 2 18.9
2019-Jun-19 07:03 114 18.9
2019-Jun-19 06:48 108 2 gusting 6 18.3
2019-Jun-19 06:43 112 0 gusting 5 17.8
2019-Jun-19 06:38 112 17.8
2019-Jun-19 06:33 112 17.8
2019-Jun-19 06:18 112 17.2
2019-Jun-19 06:13 112 17.2
2019-Jun-19 06:08 112 17.2
2019-Jun-19 06:03 112 17.2
2019-Jun-19 05:48 113 4 gusting 6 17.2
2019-Jun-19 05:43 126 0 gusting 4 16.7
2019-Jun-19 05:38 069 2 gusting 4 16.7
2019-Jun-19 05:33 039 16.7
2019-Jun-19 05:18 038 16.7
2019-Jun-19 05:13 038 16.7
2019-Jun-19 05:08 038 17.2
2019-Jun-19 05:03 034 17.2
2019-Jun-19 04:48 026 16.7
2019-Jun-19 04:43 026 16.7
2019-Jun-19 04:38 026 16.7
2019-Jun-19 04:33 026 16.7
2019-Jun-19 04:18 024 16.1
2019-Jun-19 04:13 024 16.1
2019-Jun-19 04:08 024 16.1
2019-Jun-19 04:03 024 16.1
2019-Jun-19 03:48 062 15.6
2019-Jun-19 03:43 063 15.6
2019-Jun-19 03:38 063 15.0
2019-Jun-19 03:33 063 15.0
2019-Jun-19 03:18 130 14.4
2019-Jun-19 03:13 134 1 gusting 4 14.4
2019-Jun-19 03:08 134 14.4
2019-Jun-19 03:03 134 14.4
2019-Jun-19 02:48 134 14.4
2019-Jun-19 02:43 134 14.4
2019-Jun-19 02:38 134 14.4
2019-Jun-19 02:33 134 14.4
2019-Jun-19 02:18 134 2 gusting 4 14.4
2019-Jun-19 02:13 133 15.0
2019-Jun-19 02:08 133 15.0
2019-Jun-19 02:03 133 2 gusting 4 15.0
2019-Jun-19 01:48 139 15.0
2019-Jun-19 01:43 140 15.0
2019-Jun-19 01:38 140 15.0
2019-Jun-19 01:33 142 15.0
2019-Jun-19 01:18 142 15.0
2019-Jun-19 01:13 142 15.0
2019-Jun-19 01:08 142 15.0
2019-Jun-19 01:03 142 15.0
2019-Jun-19 00:48 142 2 gusting 2 15.6
2019-Jun-19 00:43 142 2 gusting 2 15.6
2019-Jun-19 00:38 142 2 gusting 4 15.6
2019-Jun-19 00:33 142 2 gusting 4 15.6
2019-Jun-19 00:18 150 1 gusting 2 16.1
2019-Jun-19 00:13 150 4 gusting 6 16.7
2019-Jun-19 00:08 153 4 gusting 6 16.7
2019-Jun-19 00:03 138 0 gusting 6 16.7
2019-Jun-18 23:48 147 16.7
2019-Jun-18 23:43 148 3 gusting 6 16.7
2019-Jun-18 23:38 142 6 gusting 8 16.7
2019-Jun-18 23:33 147 5 gusting 8 16.1
2019-Jun-18 23:18 147 5 gusting 6 16.1
2019-Jun-18 23:13 157 5 gusting 6 16.7
2019-Jun-18 23:08 167 4 gusting 6 16.1
2019-Jun-18 23:03 166 5 gusting 6 16.7
2019-Jun-18 22:48 158 16.7
2019-Jun-18 22:43 175 16.7
2019-Jun-18 22:38 227 16.7
2019-Jun-18 22:33 227 16.7
2019-Jun-18 22:18 166 0 gusting 2 16.7
2019-Jun-18 22:13 164 16.7
2019-Jun-18 22:08 164 17.2
2019-Jun-18 22:03 164 17.2
2019-Jun-18 21:48 164 17.2
2019-Jun-18 21:43 164 17.2
2019-Jun-18 21:13 151 6 gusting 6 18.3
2019-Jun-18 21:08 146 5 gusting 6 18.3
2019-Jun-18 21:03 144 4 gusting 6 18.3
2019-Jun-18 20:48 161 5 gusting 6 18.3
2019-Jun-18 20:43 154 4 gusting 6 18.3
2019-Jun-18 20:38 148 4 gusting 5 18.3
2019-Jun-18 20:33 148 3 gusting 8 18.9
2019-Jun-18 20:18 147 3 gusting 7 18.9
2019-Jun-18 20:13 162 5 gusting 8 18.9
2019-Jun-18 20:08 158 6 gusting 10 18.9
2019-Jun-18 20:03 157 7 gusting 10 18.9
2019-Jun-18 19:48 149 6 gusting 7 18.9
2019-Jun-18 19:43 149 4 gusting 7 18.9
2019-Jun-18 19:38 146 4 gusting 10 18.9
2019-Jun-18 19:33 147 5 gusting 7 18.9
2019-Jun-18 19:18 127 18.9
2019-Jun-18 19:13 126 18.9
2019-Jun-18 19:08 126 1 gusting 4 18.9
2019-Jun-18 19:03 125 18.9
2019-Jun-18 18:48 137 18.9
2019-Jun-18 18:43 137 18.9
2019-Jun-18 18:38 138 18.9
2019-Jun-18 18:33 139 18.9
2019-Jun-18 18:18 145 4 gusting 5 18.9
2019-Jun-18 18:13 149 0 gusting 2 18.9
2019-Jun-18 18:08 222 18.9
2019-Jun-18 18:03 289 18.9
2019-Jun-18 17:48 296 18.9
2019-Jun-18 17:43 251 18.9
2019-Jun-18 17:38 250 18.9
2019-Jun-18 17:33 271 0 gusting 6 18.9
2019-Jun-18 17:18 216 1 gusting 5 18.9
2019-Jun-18 17:13 191 2 gusting 4 18.9
2019-Jun-18 17:08 195 2 gusting 4 18.9
2019-Jun-18 17:03 213 2 gusting 6 18.9
2019-Jun-18 16:48 227 4 gusting 6 18.9
2019-Jun-18 16:43 211 3 gusting 6 19.4
2019-Jun-18 16:38 220 4 gusting 10 19.4
2019-Jun-18 16:33 211 6 gusting 10 19.4
2019-Jun-18 16:18 182 6 gusting 10 19.4
2019-Jun-18 16:13 188 6 gusting 10 19.4
2019-Jun-18 16:08 196 5 gusting 10 19.4
2019-Jun-18 16:03 225 6 gusting 14 20.0
2019-Jun-18 15:48 213 6 gusting 11 20.6
2019-Jun-18 15:43 202 7 gusting 11 20.6
2019-Jun-18 15:38 219 6 gusting 11 20.6
2019-Jun-18 15:33 200 4 gusting 10 20.6
2019-Jun-18 15:18 207 7 gusting 13 20.0
2019-Jun-18 15:13 204 7 gusting 11 20.0
2019-Jun-18 15:08 203 11 gusting 13 20.6
2019-Jun-18 15:03 202 6 gusting 12 20.6
2019-Jun-18 14:48 208 8 gusting 13 21.1
2019-Jun-18 14:43 215 9 gusting 14 21.1
2019-Jun-18 14:38 204 8 gusting 15 21.7
2019-Jun-18 14:33 183 8 gusting 18 21.7
2019-Jun-18 14:18 194 13 gusting 19 22.2
2019-Jun-18 14:13 208 10 gusting 14 22.2
2019-Jun-18 14:08 184 10 gusting 17 22.2
2019-Jun-18 14:03 193 14 gusting 19 21.7
2019-Jun-18 13:48 196 12 gusting 18 22.2
2019-Jun-18 13:43 189 11 gusting 20 22.2
2019-Jun-18 13:38 194 11 gusting 24 22.2
2019-Jun-18 13:33 194 16 gusting 20 22.2
2019-Jun-18 13:18 191 11 gusting 19 21.7
2019-Jun-18 13:13 190 14 gusting 22 21.7
2019-Jun-18 13:08 196 13 gusting 20 22.2
2019-Jun-18 13:03 183 18 gusting 22 22.2
2019-Jun-18 12:48 203 15 gusting 24 22.8
2019-Jun-18 12:43 196 13 gusting 20 22.8
2019-Jun-18 12:38 198 17 gusting 22 22.8
2019-Jun-18 12:33 194 17 gusting 21 22.8
2019-Jun-18 12:18 188 18 gusting 21 22.8
2019-Jun-18 12:13 181 15 gusting 25 22.8
2019-Jun-18 12:08 180 17 gusting 24 22.8
2019-Jun-18 12:03 184 14 gusting 24 22.8
2019-Jun-18 11:48 190 14 gusting 19 22.8
2019-Jun-18 11:43 194 12 gusting 20 22.8
2019-Jun-18 11:38 201 17 gusting 25 22.2
2019-Jun-18 11:33 193 13 gusting 22 22.2
2019-Jun-18 11:18 183 13 gusting 22 21.7
2019-Jun-18 11:13 185 17 gusting 24 21.7
2019-Jun-18 11:08 187 15 gusting 22 21.1
2019-Jun-18 11:03 174 18 gusting 26 21.1
2019-Jun-18 10:48 193 16 gusting 22 21.1
2019-Jun-18 10:43 182 12 gusting 19 21.1
2019-Jun-18 10:38 181 13 gusting 20 20.6
2019-Jun-18 10:33 188 13 gusting 22 20.6
2019-Jun-18 10:18 180 10 gusting 20 20.6
2019-Jun-18 10:13 185 14 gusting 25 21.1
2019-Jun-18 10:08 186 17 gusting 22 21.1
2019-Jun-18 10:03 184 15 gusting 27 21.1
2019-Jun-18 09:48 186 12 gusting 21 20.6
2019-Jun-18 09:43 185 19 gusting 28 20.0
2019-Jun-18 09:38 175 16 gusting 26 20.0
2019-Jun-18 09:33 174 15 gusting 22 20.0
2019-Jun-18 09:18 181 15 gusting 27 20.0
2019-Jun-18 09:13 172 17 gusting 22 20.0
2019-Jun-18 09:08 168 20 gusting 31 20.0
2019-Jun-18 09:03 202 19 gusting 30 20.0
2019-Jun-18 08:48 179 13 gusting 19 20.0
2019-Jun-18 08:43 187 13 gusting 21 20.0
2019-Jun-18 08:38 203 11 gusting 21 20.0
2019-Jun-18 08:33 183 14 gusting 26 20.0
2019-Jun-18 08:18 189 9 gusting 21 19.4
2019-Jun-18 08:13 181 20 gusting 30 19.4
2019-Jun-18 08:08 165 13 gusting 19 18.9
2019-Jun-18 08:03 166 12 gusting 22 18.9
2019-Jun-18 07:48 174 11 gusting 19 18.9
2019-Jun-18 07:43 176 13 gusting 22 18.9
2019-Jun-18 07:38 165 17 gusting 26 18.9
2019-Jun-18 07:33 163 14 gusting 26 19.4
2019-Jun-18 07:18 171 14 gusting 20 20.0
2019-Jun-18 07:13 192 14 gusting 21 19.4
2019-Jun-18 07:08 163 11 gusting 17 19.4
2019-Jun-18 07:03 181 10 gusting 22 19.4
2019-Jun-18 06:48 177 14 gusting 25 19.4
2019-Jun-18 06:43 183 14 gusting 19 18.9
2019-Jun-18 06:38 178 13 gusting 19 18.9
2019-Jun-18 06:33 165 17 gusting 30 18.9
2019-Jun-18 06:18 172 19 gusting 28 18.9
2019-Jun-18 06:13 170 13 gusting 21 18.9
2019-Jun-18 06:08 177 13 gusting 22 18.3
2019-Jun-18 06:03 174 11 gusting 22 18.3
2019-Jun-18 05:48 159 13 gusting 24 17.8
2019-Jun-18 05:43 160 17 gusting 25 17.8
2019-Jun-18 05:38 159 14 gusting 22 17.8
2019-Jun-18 05:33 168 14 gusting 24 17.8
2019-Jun-18 05:18 163 11 gusting 17 17.2
2019-Jun-18 05:13 154 10 gusting 19 17.2
2019-Jun-18 05:08 151 10 gusting 17 17.2
2019-Jun-18 05:03 143 7 gusting 15 16.7
2019-Jun-18 04:48 155 8 gusting 13 16.1
2019-Jun-18 04:43 151 9 gusting 13 16.1
2019-Jun-18 04:38 145 7 gusting 14 16.1
2019-Jun-18 04:33 151 7 gusting 13 16.1
2019-Jun-18 04:18 149 8 gusting 12 15.6
2019-Jun-18 04:13 150 10 gusting 13 15.6
2019-Jun-18 04:08 149 8 gusting 11 15.6
2019-Jun-18 04:03 150 9 gusting 12 15.6
2019-Jun-18 03:48 142 9 gusting 13 15.0
2019-Jun-18 03:43 144 7 gusting 12 15.0
2019-Jun-18 03:38 142 7 gusting 12 15.0
2019-Jun-18 03:33 140 6 gusting 10 15.0
2019-Jun-18 03:18 143 8 gusting 10 15.0
2019-Jun-18 03:13 145 7 gusting 10 15.0
2019-Jun-18 03:08 147 7 gusting 11 15.0
2019-Jun-18 03:03 145 8 gusting 10 15.0